"Period start","avg(HW err(1)/warn(2) (#))","avg(Visibility (m))","avg(Weather code (#))","avg(Precip intensity (mm/h))","min(HW err(1)/warn(2) (#))","max(HW err(1)/warn(2) (#))","std(HW err(1)/warn(2) (#))","med(HW err(1)/warn(2) (#))","min(Visibility (m))","max(Visibility (m))","std(Visibility (m))","med(Visibility (m))","min(Weather code (#))","max(Weather code (#))","std(Weather code (#))","med(Weather code (#))","min(Precip intensity (mm/h))","max(Precip intensity (mm/h))","std(Precip intensity (mm/h))","med(Precip intensity (mm/h))"
2017-04-16 00:00:00,2,9582,71,0.39,2,2,0,2,2008,16976,4301,10002,71,71,0,71,0.00,1.30,0.39,0.25
2017-04-16 00:10:00,2,12043,71,0.23,2,2,0,2,5806,17348,3844,12628,71,71,0,71,0.00,0.45,0.16,0.22
2017-04-16 00:20:00,2,9179,71,0.44,2,2,0,2,3586,14555,3937,9185,71,71,0,71,0.00,1.15,0.36,0.35
2017-04-16 00:30:00,2,13668,71,0.24,2,2,0,2,7412,20129,4675,11763,71,71,0,71,0.05,0.65,0.19,0.15
2017-04-16 00:40:00,2,15862,71,0.16,2,2,0,2,8421,24364,5316,16635,71,71,0,71,0.00,0.30,0.11,0.17
2017-04-16 00:50:00,2,21198,71,0.13,2,2,0,2,6355,33058,8778,22624,71,71,0,71,0.00,0.45,0.16,0.05
2017-04-16 01:00:00,2,19045,71,0.20,2,2,0,2,8900,31289,6489,19398,71,71,0,71,0.00,0.65,0.19,0.15
2017-04-16 01:10:00,2,14941,71,0.27,2,2,0,2,7805,24025,4337,13866,71,71,0,71,0.05,0.90,0.26,0.15
2017-04-16 01:20:00,2,21327,71,0.11,2,2,0,2,9832,32583,6695,21691,71,71,0,71,0.00,0.20,0.09,0.10
2017-04-16 01:30:00,2,32813,71,0.04,2,2,0,2,22054,46656,7840,30894,71,71,0,71,0.00,0.15,0.05,0.00
2017-04-16 01:40:00,2,30911,73,0.02,2,2,0,2,22063,41360,6447,33138,71,77,3,71,0.00,0.10,0.03,0.00
2017-04-16 01:50:00,2,21826,71,0.04,2,2,0,2,15386,28931,3588,21562,71,71,0,71,0.00,0.10,0.04,0.05
2017-04-16 02:00:00,2,27854,64,0.08,2,2,0,2,12725,47381,10930,26698,0,71,21,71,0.00,0.60,0.18,0.00
2017-04-16 02:10:00,2,29624,18,0.01,2,2,0,2,16191,41546,8653,29912,0,71,29,0,0.00,0.05,0.02,0.00
2017-04-16 02:20:00,2,31819,14,0.00,2,2,0,2,12847,48821,10551,33592,0,71,28,0,0.00,0.00,0.00,0.00
2017-04-16 02:30:00,2,32078,45,0.04,2,2,0,2,9034,49888,12069,34938,0,71,26,41,0.00,0.30,0.09,0.00
2017-04-16 02:40:00,2,34664,0,0.00,2,2,0,2,26374,45926,6182,33233,0,0,0,0,0.00,0.00,0.00,0.00
2017-04-16 02:50:00,2,33792,36,0.01,2,2,0,2,12643,49537,11023,38206,0,71,36,36,0.00,0.10,0.03,0.00
2017-04-16 03:00:00,2,41184,0,0.00,2,2,0,2,24260,50000,8475,45291,0,0,0,0,0.00,0.00,0.00,0.00
2017-04-16 03:10:00,2,36294,0,0.00,2,2,0,2,20595,46123,7560,38552,0,0,0,0,0.00,0.00,0.00,0.00
2017-04-16 03:20:00,2,42906,0,0.00,2,2,0,2,34836,50000,4519,41516,0,0,0,0,0.00,0.00,0.00,0.00
2017-04-16 03:30:00,2,28853,22,0.01,2,2,0,2,15821,40647,9268,29718,0,77,33,0,0.00,0.05,0.02,0.00
2017-04-16 03:40:00,2,31419,29,0.03,2,2,0,2,14618,46097,9420,31128,0,77,36,0,0.00,0.10,0.04,0.00
2017-04-16 03:50:00,2,26719,36,0.03,2,2,0,2,20071,33080,4860,28237,0,71,36,36,0.00,0.25,0.08,0.00
2017-04-16 04:00:00,2,24667,64,0.02,2,2,0,2,16800,41081,7607,22551,0,71,21,71,0.00,0.10,0.03,0.00
2017-04-16 04:10:00,2,23048,71,0.07,2,2,0,2,11651,31562,6179,22820,71,71,0,71,0.00,0.30,0.09,0.03
2017-04-16 04:20:00,2,18924,71,0.14,2,2,0,2,10728,31286,5829,18147,71,71,0,71,0.00,0.35,0.13,0.12
2017-04-16 04:30:00,2,14199,71,0.16,2,2,0,2,9223,20112,3159,14110,71,71,0,71,0.00,0.45,0.17,0.05
2017-04-16 04:40:00,2,9581,71,0.29,2,2,0,2,5431,20537,4282,8446,71,71,0,71,0.00,1.00,0.30,0.22
2017-04-16 04:50:00,2,5852,71,0.60,2,2,0,2,3492,8431,1707,6034,71,71,0,71,0.15,1.15,0.35,0.70
2017-04-16 05:00:00,2,4978,71,0.60,2,2,0,2,2542,9348,1689,4502,71,71,0,71,0.10,1.45,0.40,0.55
2017-04-16 05:10:00,2,4636,71,0.55,2,2,0,2,3465,6410,1064,4398,71,71,0,71,0.30,1.05,0.22,0.47
2017-04-16 05:20:00,2,4989,71,0.78,2,2,0,2,2914,9097,2117,4098,71,71,0,71,0.10,1.75,0.48,0.80
2017-04-16 05:30:00,2,4383,71,0.69,2,2,0,2,3011,7819,1488,3678,71,71,0,71,0.20,1.15,0.34,0.65
2017-04-16 05:40:00,2,7168,64,0.49,2,2,0,2,2665,12583,3060,6636,0,71,21,71,0.00,1.10,0.32,0.45
2017-04-16 05:50:00,2,10053,71,0.20,2,2,0,2,6577,17268,3874,7716,71,71,0,71,0.00,0.35,0.14,0.25
2017-04-16 06:00:00,2,12620,71,0.25,2,2,0,2,5968,27693,6733,9860,71,71,0,71,0.00,0.70,0.25,0.12
2017-04-16 06:10:00,2,13872,71,0.22,2,2,0,2,6352,21626,5173,15141,71,71,0,71,0.00,0.60,0.23,0.15
2017-04-16 06:20:00,2,9300,71,0.36,2,2,0,2,2773,23972,5605,8222,71,71,0,71,0.05,0.95,0.33,0.22
2017-04-16 06:30:00,2,11803,71,0.34,2,2,0,2,3773,22072,5032,12128,71,71,0,71,0.00,1.50,0.42,0.20
2017-04-16 06:40:00,2,11574,71,0.21,2,2,0,2,7394,19808,4054,10436,71,71,0,71,0.00,0.50,0.14,0.20
2017-04-16 06:50:00,2,9212,71,0.30,2,2,0,2,4809,17785,3497,8200,71,71,0,71,0.00,1.00,0.29,0.28
2017-04-16 07:00:00,2,9978,71,0.53,2,2,0,2,2455,22319,5948,8441,71,71,0,71,0.00,1.15,0.45,0.38
2017-04-16 07:10:00,2,8114,71,0.44,2,2,0,2,4793,12419,2601,7902,71,71,0,71,0.05,1.10,0.35,0.33
2017-04-16 07:20:00,2,5952,71,0.53,2,2,0,2,3607,7724,1402,6475,71,71,0,71,0.25,1.10,0.26,0.45
2017-04-16 07:30:00,2,5172,71,0.55,2,2,0,2,3086,9501,2083,4192,71,71,0,71,0.05,1.25,0.29,0.53
2017-04-16 07:40:00,2,3760,71,0.77,2,2,0,2,2049,6315,1205,3535,71,71,0,71,0.45,1.10,0.22,0.75
2017-04-16 07:50:00,2,4692,71,0.56,2,2,0,2,2495,9538,1881,4176,71,71,0,71,0.05,0.95,0.29,0.50
2017-04-16 08:00:00,2,5457,71,0.53,2,2,0,2,3700,8589,1447,5029,71,71,0,71,0.10,0.85,0.21,0.57
2017-04-16 08:10:00,2,5672,71,0.46,2,2,0,2,3768,8350,1187,5528,71,71,0,71,0.20,0.95,0.23,0.43
2017-04-16 08:20:00,2,8189,71,0.28,2,2,0,2,5189,12115,1907,8018,71,71,0,71,0.10,0.40,0.08,0.30
2017-04-16 08:30:00,2,8624,71,0.25,2,2,0,2,5888,11210,1631,8668,71,71,0,71,0.05,0.55,0.15,0.17
2017-04-16 08:40:00,2,6846,71,0.36,2,2,0,2,3870,10855,2409,6237,71,71,0,71,0.05,0.80,0.20,0.35
2017-04-16 08:50:00,2,7617,71,0.31,2,2,0,2,5230,11553,1812,7670,71,71,0,71,0.00,0.70,0.20,0.30
2017-04-16 09:00:00,2,7380,71,0.28,2,2,0,2,4505,12016,2135,7335,71,71,0,71,0.05,0.50,0.14,0.25
2017-04-16 09:10:00,2,9516,71,0.22,2,2,0,2,6819,13789,1875,9062,71,71,0,71,0.00,0.45,0.15,0.23
2017-04-16 09:20:00,2,11803,71,0.15,2,2,0,2,6678,19459,3256,11653,71,71,0,71,0.00,0.40,0.12,0.12
2017-04-16 09:30:00,2,10547,71,0.17,2,2,0,2,6663,18999,3382,10021,71,71,0,71,0.00,0.35,0.10,0.17
2017-04-16 09:40:00,2,8442,71,0.22,2,2,0,2,5612,13973,2465,7703,71,71,0,71,0.00,0.40,0.11,0.25
2017-04-16 09:50:00,2,7508,71,0.30,2,2,0,2,3846,8739,1334,7828,71,71,0,71,0.05,0.95,0.31,0.17
2017-04-16 10:00:00,2,7390,71,0.28,2,2,0,2,4664,9595,1746,7899,71,71,0,71,0.10,1.00,0.26,0.17
2017-04-16 10:10:00,2,8219,71,0.26,2,2,0,2,5934,13197,2073,7166,71,71,0,71,0.05,0.55,0.18,0.25
2017-04-16 10:20:00,2,9637,71,0.20,2,2,0,2,3829,15229,2945,9192,71,71,0,71,0.00,0.50,0.15,0.20
2017-04-16 10:30:00,2,9914,71,0.19,2,2,0,2,5421,18674,3738,9781,71,71,0,71,0.05,0.60,0.15,0.15
2017-04-16 10:40:00,2,15675,71,0.06,2,2,0,2,11337,18347,2150,15682,71,71,0,71,0.00,0.15,0.04,0.05
2017-04-16 10:50:00,2,16399,73,0.04,2,2,0,2,8391,28955,5525,16010,71,77,3,71,0.00,0.15,0.05,0.03
2017-04-16 11:00:00,2,18766,71,0.07,2,2,0,2,11983,28544,4195,18566,71,71,0,71,0.00,0.20,0.06,0.05
2017-04-16 11:10:00,2,23937,71,0.04,2,2,0,2,8439,37331,9366,25282,71,71,0,71,0.00,0.30,0.09,0.00
2017-04-16 11:20:00,2,22845,77,0.03,2,2,0,2,7803,35166,8142,22060,77,78,0,77,0.00,0.15,0.05,0.00
2017-04-16 11:30:00,2,14872,73,0.11,2,2,0,2,2690,25289,7352,14038,71,77,3,71,0.00,0.55,0.17,0.05
2017-04-16 11:40:00,2,22057,37,0.00,2,2,0,2,13062,30042,5563,23894,0,71,32,41,0.00,0.00,0.00,0.00
2017-04-16 11:50:00,2,15329,72,0.05,2,2,0,2,10017,19766,2844,15624,71,77,2,71,0.00,0.15,0.05,0.03
2017-04-16 12:00:00,2,12792,71,0.10,2,2,0,2,7553,17921,3327,13178,71,71,0,71,0.00,0.35,0.09,0.05
2017-04-16 12:10:00,2,11768,71,0.04,2,2,0,2,8508,14928,1884,11536,71,71,0,71,0.00,0.20,0.06,0.03
2017-04-16 12:20:00,2,6929,71,0.34,2,2,0,2,3802,10837,2460,6450,71,71,0,71,0.00,0.75,0.25,0.23
2017-04-16 12:30:00,2,5714,71,0.40,2,2,0,2,4142,7399,959,5827,71,71,0,71,0.15,0.85,0.22,0.38
2017-04-16 12:40:00,2,6419,71,0.35,2,2,0,2,4712,7870,820,6592,71,71,0,71,0.05,0.85,0.25,0.28
2017-04-16 12:50:00,2,5806,71,0.30,2,2,0,2,4436,7426,1000,5796,71,71,0,71,0.05,0.65,0.22,0.25
2017-04-16 13:00:00,2,7298,71,0.21,2,2,0,2,3727,10259,1909,7190,71,71,0,71,0.05,0.60,0.20,0.12
2017-04-16 13:10:00,2,4274,71,0.55,2,2,0,2,2980,5948,910,4055,71,71,0,71,0.15,1.05,0.30,0.57
2017-04-16 13:20:00,2,3795,71,0.77,2,2,0,2,2092,8076,1627,3476,71,71,0,71,0.10,1.85,0.53,0.73
2017-04-16 13:30:00,2,4134,71,0.60,2,2,0,2,2340,5515,937,4078,71,71,0,71,0.05,1.20,0.33,0.62
2017-04-16 13:40:00,2,4835,71,0.54,2,2,0,2,2821,6427,971,4802,71,71,0,71,0.15,1.30,0.43,0.35
2017-04-16 13:50:00,2,3414,71,0.72,2,2,0,2,1734,5083,1156,3324,71,71,0,71,0.15,1.65,0.44,0.62
2017-04-16 14:00:00,2,2592,71,1.11,2,2,0,2,1962,3220,431,2645,71,71,0,71,0.55,1.75,0.34,1.05
2017-04-16 14:10:00,2,3980,71,0.64,2,2,0,2,2286,5634,987,4054,71,71,0,71,0.20,1.10,0.28,0.70
2017-04-16 14:20:00,2,5967,71,0.38,2,2,0,2,2981,10141,2213,5604,71,71,0,71,0.00,1.00,0.36,0.25
2017-04-16 14:30:00,2,4944,71,0.65,2,2,0,2,2256,11229,3010,3648,71,71,0,71,0.05,1.65,0.54,0.50
2017-04-16 14:40:00,2,4378,71,0.62,2,2,0,2,1213,9195,2229,3884,71,71,0,71,0.05,1.45,0.46,0.78
2017-04-16 14:50:00,2,3347,71,0.64,2,2,0,2,1648,8224,1809,2654,71,71,0,71,0.15,1.30,0.38,0.73
2017-04-16 15:00:00,2,3145,71,0.60,2,2,0,2,2234,4303,688,3184,71,71,0,71,0.15,1.25,0.36,0.52
2017-04-16 15:10:00,2,3270,71,0.57,2,2,0,2,1826,5006,972,3093,71,71,0,71,0.10,1.10,0.34,0.60
2017-04-16 15:20:00,2,4472,71,0.49,2,2,0,2,1121,9908,2621,3437,71,71,0,71,0.05,1.20,0.40,0.42
2017-04-16 15:30:00,2,6127,64,0.25,2,2,0,2,2445,11421,2635,5339,0,71,21,71,0.00,0.70,0.21,0.23
2017-04-16 15:40:00,2,4031,71,0.82,2,2,0,2,2831,4991,661,4153,71,71,0,71,0.25,1.70,0.37,0.75
2017-04-16 15:50:00,2,3309,71,0.79,2,2,0,2,1559,5448,1271,3102,71,71,0,71,0.25,1.40,0.38,0.73
2017-04-16 16:00:00,2,4479,64,0.46,2,2,0,2,2632,8228,1780,3797,0,71,21,71,0.00,1.50,0.43,0.30
2017-04-16 16:10:00,2,7493,71,0.27,2,2,0,2,3192,11509,2778,7379,71,71,0,71,0.00,0.50,0.16,0.30
2017-04-16 16:20:00,2,6580,71,0.30,2,2,0,2,3695,9823,1873,6269,71,71,0,71,0.05,0.95,0.29,0.17
2017-04-16 16:30:00,2,6088,71,0.22,2,2,0,2,2321,9312,2220,6125,71,71,0,71,0.00,0.85,0.23,0.15
2017-04-16 16:40:00,2,5553,71,0.34,2,2,0,2,2293,10487,2549,5114,71,71,0,71,0.00,1.20,0.34,0.28
2017-04-16 16:50:00,2,3491,71,0.67,2,2,0,2,1991,5607,1256,3174,71,71,0,71,0.30,1.00,0.20,0.73
2017-04-16 17:00:00,2,3460,71,0.76,2,2,0,2,1278,6078,1395,3392,71,71,0,71,0.00,2.35,0.77,0.45
2017-04-16 17:10:00,2,4881,71,0.64,2,2,0,2,1663,10631,3341,3486,71,71,0,71,0.00,1.40,0.48,0.62
2017-04-16 17:20:00,2,5546,57,0.32,2,2,0,2,2195,11417,2822,4656,0,71,28,71,0.00,0.90,0.31,0.23
2017-04-16 17:30:00,2,4866,71,0.57,2,2,0,2,1584,9581,2119,4488,71,71,0,71,0.00,2.50,0.71,0.30
2017-04-16 17:40:00,2,5731,71,0.53,2,2,0,2,1936,12245,3828,4109,71,71,0,71,0.00,1.35,0.46,0.40
2017-04-16 17:50:00,2,6970,71,0.33,2,2,0,2,2232,13357,3357,6758,71,71,0,71,0.00,1.10,0.33,0.17
2017-04-16 18:00:00,2,5276,57,0.39,2,2,0,2,1104,11241,3661,4815,0,71,28,71,0.00,0.95,0.32,0.28
2017-04-16 18:10:00,2,5922,71,0.23,2,2,0,2,2669,9322,2354,5577,71,71,0,71,0.00,0.70,0.23,0.15
2017-04-16 18:20:00,2,4788,71,0.56,2,2,0,2,2097,8314,2031,4726,71,71,0,71,0.10,1.30,0.37,0.42
2017-04-16 18:30:00,2,7815,71,0.30,2,2,0,2,2099,13085,3573,7088,71,71,0,71,0.00,0.95,0.36,0.12
2017-04-16 18:40:00,2,6393,71,0.32,2,2,0,2,1313,14323,4130,5506,71,71,0,71,0.00,0.85,0.26,0.28
2017-04-16 18:50:00,2,4496,71,0.53,2,2,0,2,1431,9964,2686,3418,71,71,0,71,0.00,1.65,0.42,0.50
2017-04-16 19:00:00,2,5938,71,0.38,2,2,0,2,1249,13016,3480,5944,71,71,0,71,0.00,1.45,0.42,0.17
2017-04-16 19:10:00,2,7185,71,0.31,2,2,0,2,1211,16282,4664,6060,71,71,0,71,0.00,0.85,0.31,0.28
2017-04-16 19:20:00,2,12512,71,0.06,2,2,0,2,5085,15804,2937,13066,71,71,0,71,0.00,0.25,0.09,0.00
2017-04-16 19:30:00,2,9474,71,0.18,2,2,0,2,1246,16745,5059,8420,71,71,0,71,0.00,0.75,0.26,0.00
2017-04-16 19:40:00,2,11342,71,0.07,2,2,0,2,2518,16741,4357,12027,71,71,0,71,0.00,0.25,0.08,0.05
2017-04-16 19:50:00,2,14819,66,0.07,2,2,0,2,9480,18384,2877,15310,41,77,13,71,0.00,0.50,0.15,0.00
2017-04-16 20:00:00,2,15087,50,0.01,2,2,0,2,2582,23320,6823,16768,0,71,33,71,0.00,0.10,0.03,0.00
2017-04-16 20:10:00,2,13835,44,0.03,2,2,0,2,3533,20205,5134,13396,0,71,31,56,0.00,0.25,0.07,0.00
2017-04-16 20:20:00,2,12665,71,0.15,2,2,0,2,2342,19761,4863,13772,71,71,0,71,0.00,0.80,0.24,0.05
2017-04-16 20:30:00,2,9564,71,0.17,2,2,0,2,4143,19198,5521,7400,71,71,0,71,0.00,0.40,0.16,0.15
2017-04-16 20:40:00,2,9800,71,0.28,2,2,0,2,3940,16026,3476,9832,71,71,0,71,0.00,0.90,0.30,0.12
2017-04-16 20:50:00,2,6097,71,0.71,2,2,0,2,2813,11658,2530,5753,71,71,0,71,0.25,1.70,0.41,0.60
2017-04-16 21:00:00,2,4925,71,0.57,2,2,0,2,1545,7270,1441,4944,71,71,0,71,0.15,0.95,0.25,0.60
2017-04-16 21:10:00,2,3280,71,1.22,2,2,0,2,2110,5219,958,3078,71,71,0,71,0.50,2.30,0.54,1.18
2017-04-16 21:20:00,2,3553,71,0.79,2,2,0,2,1313,9333,2107,3246,71,71,0,71,0.05,1.60,0.46,0.78
2017-04-16 21:30:00,2,3448,71,0.63,2,2,0,2,1792,5454,1269,3254,71,71,0,71,0.30,1.05,0.19,0.60
2017-04-16 21:40:00,2,5732,71,0.76,2,2,0,2,2833,7525,1375,5706,71,71,0,71,0.40,1.55,0.33,0.68
2017-04-16 21:50:00,2,5883,71,0.96,2,2,0,2,3498,7909,1139,5676,71,71,0,71,0.35,1.75,0.54,0.77
2017-04-16 22:00:00,2,4638,71,1.29,2,2,0,2,3509,5547,641,4704,71,71,0,71,0.85,1.60,0.25,1.38
2017-04-16 22:10:00,2,7964,71,0.66,2,2,0,2,4712,11133,2080,7474,71,71,0,71,0.25,1.40,0.35,0.60
2017-04-16 22:20:00,2,9437,71,0.57,2,2,0,2,6166,15274,2495,8715,71,71,0,71,0.25,0.85,0.22,0.65
2017-04-16 22:30:00,2,10212,71,0.42,2,2,0,2,9018,12601,1330,9606,71,71,0,71,0.05,0.90,0.28,0.38
2017-04-16 22:40:00,2,12474,71,0.28,2,2,0,2,7710,18110,2729,11863,71,71,0,71,0.10,0.55,0.15,0.25
2017-04-16 22:50:00,2,16328,71,0.22,2,2,0,2,13672,21633,2261,15414,71,71,0,71,0.00,0.40,0.12,0.25
2017-04-16 23:00:00,2,12346,71,0.38,2,2,0,2,9766,17490,1992,12099,71,71,0,71,0.10,0.65,0.19,0.40
2017-04-16 23:10:00,2,9942,71,0.64,2,2,0,2,5341,15070,3013,9682,71,71,0,71,0.15,1.15,0.36,0.65
2017-04-16 23:20:00,2,9865,71,0.53,2,2,0,2,6968,12367,1888,10309,71,71,0,71,0.15,1.25,0.38,0.35
2017-04-16 23:30:00,2,7789,71,0.80,2,2,0,2,6526,9179,833,7748,71,71,0,71,0.50,1.05,0.14,0.80
2017-04-16 23:40:00,2,7246,71,0.78,2,2,0,2,5236,10427,1334,7110,71,71,0,71,0.50,1.20,0.26,0.68
2017-04-16 23:50:00,2,8831,71,0.76,2,2,0,2,4965,13814,2496,8382,71,71,0,71,0.10,2.35,0.61,0.57
